Location: Recife
(8.0585°S, 34.8848°W)
Time: 11:25:24
(UTC-03:00)

Courier 1B - Pass Details

Date: 23 April 2026
Orbit: 962 x 1209 km, 28.3° (Epoch: 7 May)

Event Time Altitude Azimuth Distance (km) Brightness Sun altitude
Rises 03:50:40 0° 273° (W) 3,821 - -22.9°
Reaches altitude 10° 03:53:38 10° 264° (W) 2,908 - -22.2°
Exits shadow 03:58:12 30° 228° (SW) 1,884 8.5 -21.1°
Maximum altitude 03:59:58 33° 201° (SSW) 1,783 8.6 -20.7°
Drops below altitude 10° 04:06:41 10° 139° (SE) 3,072 10.5 -19.0°
Sets 04:09:55 0° 130° (SE) 4,065 11.3 -18.2°
